weather.gov     
National Weather Service

Regional Weather Roundup
NWS Homepage
This page is being discontinued on March 12, 2014.
The same data is available at this site. Please update your bookmarks.
Thank you, and we apologize for the inconvenience.
Please send an email to SR-SRH.Webmaster@noaa.gov with any concerns.


Current Version
Previous Version:    01  02  03  04  05  06  07  08  09  10  11  12  13  14  15  16  17  18  19  20  21  22  23  24  25  26  27  28  29  30  
   31  32  33  34  35  36  37  38  39  40  41  42  43  44  45  46  47  48  49  50  51  52  53  
[Printable]
867
ASUS44 KMEG 241010
RWRTN
TENNESSEE HOURLY STATE WEATHER ROUNDUP
NATIONAL WEATHER SERVICE MEMPHIS TN
500 AM CDT THU JUL 24 2014

TNZ002-004-019-021-049-052-054-088>092-241100-
WEST TENNESSEE

CITY           SKY/WX    TMP DP  RH WIND       PRES   REMARKS
MEMPHIS INTL   PTCLDY    72  68  87 NE6       30.00R
NWS MEMPHIS      N/A     70 N/A N/A MISG        N/A
JACKSON        CLEAR     70  67  90 N6        29.99S
DYERSBURG      CLEAR     70  57  64 N3        30.02R
UNION CITY     CLEAR     63  61  94 N7        30.01R
PARIS          MOCLDY    64  60  87 N6        30.01R
LEXINGTON      CLEAR     66  66 100 CALM      29.97S
$$

TNZ008-025-027-028-033-062-065-066-241100-
NORTH MIDDLE TENNESSEE

CITY           SKY/WX    TMP DP  RH WIND       PRES   REMARKS
NASHVILLE      CLOUDY    72  69  90 NW6       29.96R
DICKSON          N/A     68  68 100 N6        29.98R
PORTLAND       MOCLDY    70  70 100 N8        29.96R
CLARKSVILLE    CLOUDY    71  63  75 N10       29.98R
LEBANON        MOCLDY    70  68  93 CALM      29.95R
SMYRNA         PTCLDY    72  72 100 N6        29.97R
COOKEVILLE     CLOUDY    70  70 100 CALM      29.98R
LIVINGSTON     CLOUDY    68  67  96 W5        29.98S
GALLATIN       PTCLDY    72  72 100 N6        29.96S
CROSSVILLE     CLOUDY    68  66  93 W3        30.01R FOG
$$

TNZ061-075-076-078-094-096-097-241100-
SOUTH MIDDLE TENNESSEE

CITY           SKY/WX    TMP DP  RH WIND       PRES   REMARKS
LEWISBURG      MOCLDY    68  66  93 CALM      29.96R VSB 1/4
FAYETTEVILLE   CLOUDY    70  70 100 CALM      29.97S
TULLAHOMA      CLOUDY    70  68  94 CALM      29.99R VSB 1/4
WINCHESTER     CLOUDY    72  72 100 CALM      29.98R
MCMINNVILLE    CLOUDY    68  68 100 CALM      29.98S VSB 1/4
COLUMBIA       MOCLDY    72  70  94 CALM      29.96R
SHELBYVILLE    CLOUDY    72  72 100 CALM      29.98R VSB 1/4
$$

TNZ017-018-042-046-047-241100-
NORTHEAST TENNESSEE

CITY           SKY/WX    TMP DP  RH WIND       PRES   REMARKS
TRI CITIES     CLOUDY    71  67  87 CALM      29.98R
ELIZABETHTON   DRIZZLE   66  64  94 CALM      29.99R
$$

TNZ012-013-036-069-073-074-241100-
CENTRAL EAST TENNESSEE

CITY           SKY/WX    TMP DP  RH WIND       PRES   REMARKS
KNOXVILLE      CLOUDY    73  69  87 CALM      29.94S
OAK RIDGE      FOG       70  69  97 CALM      29.97R VSB 1/2
GATLINBURG     CLOUDY    70  68  94 CALM      29.96R
MORRISTOWN     PTSUNNY   70  70 100 CALM      29.98R VSB 1/2
$$

TNZ083-085-099-241100-
SOUTHEAST TENNESSEE

CITY           SKY/WX    TMP DP  RH WIND       PRES   REMARKS
CHATTANOOGA    PTCLDY    73  69  87 CALM      29.96R
$$

SKY/WX REPORTED AS FAIR MEANS FEW OR NO CLOUDS BELOW
12 THOUSAND FEET.





U.S. Dept. of Commerce
NOAA National Weather Service
1325 East West Highway
Silver Spring, MD 20910
E-mail: w-nws.webmaster@noaa.gov
Page last modified: May 16, 2007
NATIONAL WEATHER SERVICE: for Safety, for Work, for Fun - FOR LIFE